WXM80 ListenWXM80 Stop

You find our weather info also at:

UK Metoffice

WeatherCloud

Weather Underground

Northeastern Weather Network

AWEKAS

Citizen Weather Observer Program (CWOP)

HAMweather, WeatherForYou, PWS Weather


Weather Underground History page Text

Daily Summary for November 11, 2017 Units:  Metric    English   Both
« Previous Day
Next Day »
Daily Weekly Monthly Yearly Custom
  High: Low: Average:
Temperature: 4.2 °C -3.4 °C -0.4 °C
Dew Point: -3.9 °C -9.4 °C -7.3 °C
Humidity: 82 % 42 % 61 %
Wind Speed: 13.2 km/h 0 km/h 4 km/h
Wind Gust: 31.5 km/h - -
Wind:- - SW
Pressure: 1034.4 hPa 1024.6 hPa -
Precipitation: 0 mm    
Historical Graphs
 
 
Tabular Data for November 11, 2017
Time Temperature Dew Point Pressure Wind Wind Speed Wind Gust Humidity Rainfall Rate (Hourly)
00:04 -2.7 °C -9.4 °C 1031.4 hPa WNW 3.9 km/h 22.2 km/h 60 % 0 mm
00:08 -2.7 °C -9.4 °C 1031.4 hPa North 9 km/h 18.5 km/h 60 % 0 mm
00:13 -2.7 °C -8.9 °C 1031.4 hPa WSW 1.3 km/h 14.8 km/h 62 % 0 mm
00:18 -2.7 °C -9.2 °C 1031.4 hPa North 12.6 km/h 27.8 km/h 61 % 0 mm
00:23 -2.7 °C -9.2 °C 1031 hPa NE 8 km/h 11.1 km/h 61 % 0 mm
00:29 -2.7 °C -8.9 °C 1031 hPa NNW 12.4 km/h 18.5 km/h 62 % 0 mm
00:34 -2.7 °C -8.9 °C 1031.7 hPa North 8 km/h 19.3 km/h 62 % 0 mm
00:39 -2.7 °C -8.9 °C 1031.4 hPa NNW 9.3 km/h 16.7 km/h 62 % 0 mm
00:44 -2.7 °C -9.2 °C 1031.4 hPa NW 7.4 km/h 22.2 km/h 61 % 0 mm
00:49 -2.7 °C -8.7 °C 1030.7 hPa West 9.2 km/h 14.8 km/h 63 % 0 mm
00:54 -2.7 °C -8.8 °C 1030.7 hPa NW 6.3 km/h 13 km/h 63 % 0 mm
00:55 -2.7 °C -8.7 °C 1031 hPa NNW 6.1 km/h 13 km/h 63 % 0 mm
01:00 -2.7 °C -9.2 °C 1031 hPa NNW 10.9 km/h 18.5 km/h 61 % 0 mm
01:05 -2.7 °C -9.2 °C 1031 hPa NW 7.4 km/h 16.7 km/h 61 % 0 mm
01:10 -2.7 °C -9.2 °C 1030.7 hPa NNW 6 km/h 18.5 km/h 61 % 0 mm
01:15 -2.7 °C -9 °C 1030.7 hPa WNW 9.7 km/h 16.7 km/h 62 % 0 mm
01:20 -2.7 °C -9.2 °C 1031 hPa NW 4.8 km/h 13 km/h 61 % 0 mm
01:25 -2.7 °C -9.2 °C 1031 hPa NNW 10.9 km/h 16.7 km/h 61 % 0 mm
01:30 -2.7 °C -9.2 °C 1031 hPa NNE 10.3 km/h 16.7 km/h 61 % 0 mm
01:35 -2.7 °C -9.2 °C 1031.4 hPa NNE 13.2 km/h 16.7 km/h 61 % 0 mm
01:40 -2.7 °C -9 °C 1031.4 hPa NNW 8 km/h 14.8 km/h 62 % 0 mm
01:45 -2.7 °C -8.6 °C 1031.4 hPa NW 9.7 km/h 14.8 km/h 64 % 0 mm
01:50 -2.7 °C -9 °C 1031.7 hPa NNW 10.3 km/h 18.5 km/h 62 % 0 mm
01:55 -2.7 °C -9 °C 1031.4 hPa NNW 8 km/h 19.3 km/h 62 % 0 mm
02:00 -2.7 °C -9 °C 1031.4 hPa WNW 4.7 km/h 9.3 km/h 62 % 0 mm
02:01 -2.7 °C -9 °C 1031.4 hPa WNW 6.1 km/h 16.1 km/h 62 % 0 mm
02:06 -2.8 °C -8.8 °C 1031.4 hPa NW 7.2 km/h 16.7 km/h 63 % 0 mm
02:11 -2.8 °C -8.7 °C 1031 hPa WNW 7.9 km/h 20.4 km/h 64 % 0 mm
02:16 -2.8 °C -8.7 °C 1031.4 hPa North 5.3 km/h 16.7 km/h 64 % 0 mm
02:21 -2.9 °C -8.8 °C 1031.4 hPa NW 5.6 km/h 11.3 km/h 64 % 0 mm
02:26 -2.9 °C -8.6 °C 1031.4 hPa NNW 3.4 km/h 9.7 km/h 65 % 0 mm
02:31 -2.9 °C -8.3 °C 1031.4 hPa NNW 2.6 km/h 13 km/h 66 % 0 mm
02:36 -2.9 °C -8.2 °C 1031.4 hPa NNW 4.3 km/h 18.5 km/h 67 % 0 mm
02:41 -2.9 °C -8.4 °C 1031 hPa WNW 3.2 km/h 16.7 km/h 66 % 0 mm
02:46 -2.9 °C -8.2 °C 1031 hPa NW 7.1 km/h 11.3 km/h 67 % 0 mm
02:52 -2.9 °C -8.2 °C 1031 hPa NW 7.4 km/h 11.1 km/h 67 % 0 mm
02:57 -2.9 °C -8.3 °C 1031 hPa WNW 2.4 km/h 18.5 km/h 66 % 0 mm
03:02 -2.9 °C -8.3 °C 1031 hPa WNW 9.3 km/h 20.4 km/h 66 % 0 mm
03:07 -2.9 °C -8.2 °C 1031 hPa WNW 7.6 km/h 14.5 km/h 67 % 0 mm
03:12 -2.9 °C -8.4 °C 1031 hPa WSW 9.5 km/h 22.5 km/h 66 % 0 mm
03:17 -2.9 °C -8.2 °C 1031.4 hPa NNW 9.2 km/h 19.3 km/h 67 % 0 mm
03:22 -2.9 °C -8.2 °C 1031 hPa ENE 11.1 km/h 16.7 km/h 67 % 0 mm
03:27 -2.9 °C -8.3 °C 1031 hPa NNW 8 km/h 31.5 km/h 66 % 0 mm
03:32 -2.9 °C -8.2 °C 1031 hPa NW 7.7 km/h 24.1 km/h 67 % 0 mm
03:37 -2.8 °C -7.7 °C 1031.4 hPa NW 10.5 km/h 18.5 km/h 69 % 0 mm
03:42 -2.8 °C -7.9 °C 1031.4 hPa NW 8 km/h 13 km/h 68 % 0 mm
03:47 -2.8 °C -7.9 °C 1031.4 hPa WNW 4.8 km/h 13 km/h 68 % 0 mm
03:52 -2.8 °C -7.9 °C 1031.4 hPa NNW 7.7 km/h 13 km/h 68 % 0 mm
03:57 -2.7 °C -7.6 °C 1031.7 hPa NW 10.5 km/h 18.5 km/h 69 % 0 mm
04:02 -2.7 °C -7.6 °C 1032.1 hPa NNW 7.7 km/h 18.5 km/h 69 % 0 mm
04:07 -2.7 °C -7.4 °C 1032.4 hPa West 12.4 km/h 18.5 km/h 70 % 0 mm
04:12 -2.7 °C -7.4 °C 1032.4 hPa WNW 7.1 km/h 13 km/h 70 % 0 mm
04:17 -2.7 °C -7.4 °C 1032.4 hPa WNW 4.7 km/h 9.3 km/h 70 % 0 mm
04:22 -2.7 °C -7.6 °C 1032.4 hPa WNW 5.3 km/h 9.3 km/h 69 % 0 mm
04:27 -2.7 °C -7.6 °C 1032.4 hPa West 9.2 km/h 13 km/h 69 % 0 mm
04:32 -2.8 °C -7.7 °C 1032.7 hPa NW 4 km/h 11.1 km/h 69 % 0 mm
04:37 -2.8 °C -7.7 °C 1032.4 hPa NNW 6.9 km/h 13 km/h 69 % 0 mm
04:42 -2.8 °C -7.6 °C 1032.4 hPa WNW 2.9 km/h 5.6 km/h 70 % 0 mm
04:47 -2.9 °C -7.4 °C 1032.7 hPa WNW 5.8 km/h 11.3 km/h 71 % 0 mm
04:52 -2.9 °C -7.7 °C 1032.7 hPa NW 5.3 km/h 11.3 km/h 70 % 0 mm
04:57 -2.9 °C -7.4 °C 1032.7 hPa NNW 5.6 km/h 9.3 km/h 71 % 0 mm
05:02 -3 °C -7.7 °C 1032.7 hPa NNW 5.3 km/h 9.7 km/h 70 % 0 mm
05:04 -3 °C -7.7 °C 1032.7 hPa WNW 10.1 km/h 18.5 km/h 70 % 0 mm
05:09 -3.1 °C -7.9 °C 1032.7 hPa North 4.3 km/h 9.3 km/h 69 % 0 mm
05:14 -3.1 °C -7.9 °C 1032.7 hPa NW 6.9 km/h 13 km/h 69 % 0 mm
05:19 -3.1 °C -7.8 °C 1032.7 hPa NNW 2.7 km/h 6.4 km/h 70 % 0 mm
05:24 -3.1 °C -7.9 °C 1032.7 hPa WNW 3.2 km/h 13 km/h 69 % 0 mm
05:29 -3.1 °C -8 °C 1032.7 hPa NW 5 km/h 9.3 km/h 69 % 0 mm
05:34 -3.1 °C -8 °C 1032.7 hPa NW 6.6 km/h 9.3 km/h 69 % 0 mm
05:39 -3.2 °C -8.1 °C 1032.7 hPa NNE 4.7 km/h 16.1 km/h 69 % 0 mm
05:44 -3.2 °C -8.2 °C 1032.7 hPa NNW 6.4 km/h 11.1 km/h 68 % 0 mm
05:49 -3.2 °C -8.1 °C 1032.7 hPa NNE 5.3 km/h 11.1 km/h 69 % 0 mm
05:54 -3.2 °C -7.9 °C 1032.7 hPa NNW 5.1 km/h 9.7 km/h 70 % 0 mm
05:59 -3.2 °C -7.9 °C 1033.1 hPa NW 2.9 km/h 5.6 km/h 70 % 0 mm
06:04 -3.3 °C -8 °C 1033.1 hPa WNW 6 km/h 14.8 km/h 70 % 0 mm
06:09 -3.3 °C -8 °C 1033.1 hPa NE 8.9 km/h 9.7 km/h 70 % 0 mm
06:14 -3.3 °C -8.2 °C 1032.7 hPa North 3.9 km/h 9.3 km/h 69 % 0 mm
06:19 -3.3 °C -8.4 °C 1032.7 hPa North 2.3 km/h 11.1 km/h 68 % 0 mm
06:24 -3.3 °C -8.2 °C 1032.7 hPa NNW 7.4 km/h 12.9 km/h 69 % 0 mm
06:29 -3.4 °C -8.4 °C 1033.1 hPa NNE 3.4 km/h 14.8 km/h 68 % 0 mm
06:35 -3.4 °C -8.3 °C 1033.1 hPa NNW 4.2 km/h 14.8 km/h 69 % 0 mm
06:40 -3.4 °C -8.3 °C 1033.1 hPa NW 6.9 km/h 14.8 km/h 69 % 0 mm
06:45 -3.4 °C -8.3 °C 1033.1 hPa NNW 5.6 km/h 9.3 km/h 69 % 0 mm
06:50 -3.4 °C -8.1 °C 1033.1 hPa NNE 5.1 km/h 11.3 km/h 70 % 0 mm
06:55 -3.4 °C -8.1 °C 1033.4 hPa NNE 6.8 km/h 13 km/h 70 % 0 mm
07:00 -3.3 °C -8.4 °C 1033.4 hPa ENE 7.4 km/h 11.1 km/h 68 % 0 mm
07:05 -3.3 °C -8.6 °C 1033.7 hPa NNE 6.9 km/h 11.1 km/h 67 % 0 mm
07:10 -3.3 °C -8.6 °C 1034.1 hPa WNW 6 km/h 13 km/h 67 % 0 mm
07:15 -3.2 °C -8.7 °C 1033.7 hPa NNW 4.8 km/h 9.7 km/h 66 % 0 mm
07:20 -3.2 °C -8.9 °C 1033.7 hPa North 10.5 km/h 18.5 km/h 65 % 0 mm
07:25 -3.2 °C -9.2 °C 1033.7 hPa North 12.2 km/h 18.5 km/h 63 % 0 mm
07:30 -3.1 °C -9.2 °C 1033.7 hPa NNW 1.4 km/h 9.3 km/h 63 % 0 mm
07:36 -3.1 °C -8.5 °C 1033.7 hPa NNW 4.8 km/h 19.3 km/h 66 % 0 mm
07:41 -3 °C -9.1 °C 1033.7 hPa NNW 3.2 km/h 16.1 km/h 63 % 0 mm
07:46 -3 °C -9.4 °C 1033.7 hPa North 9.7 km/h 14.5 km/h 61 % 0 mm
07:51 -2.9 °C -9.2 °C 1033.7 hPa North 11.3 km/h 19.3 km/h 62 % 0 mm
07:56 -2.9 °C -9.4 °C 1034.1 hPa North 8 km/h 16.1 km/h 61 % 0 mm
08:01 -2.8 °C -9.1 °C 1034.1 hPa NW 6 km/h 11.1 km/h 62 % 0 mm
08:06 -2.8 °C -9.1 °C 1034.1 hPa North 6.6 km/h 18.5 km/h 62 % 0 mm
08:11 -2.8 °C -9.3 °C 1034.1 hPa NNE 9.2 km/h 16.7 km/h 61 % 0 mm
08:16 -2.7 °C -8.9 °C 1034.1 hPa NNE 10.9 km/h 14.8 km/h 62 % 0 mm
08:21 -2.6 °C -9.1 °C 1034.1 hPa North 9.2 km/h 17.7 km/h 61 % 0 mm
08:26 -2.6 °C -9.1 °C 1034.1 hPa NNE 6.4 km/h 16.7 km/h 61 % 0 mm
08:31 -2.5 °C -9 °C 1034.4 hPa NNW 4 km/h 5.6 km/h 61 % 0 mm
08:36 -2.4 °C -9.1 °C 1034.4 hPa North 7.4 km/h 13 km/h 60 % 0 mm
08:41 -2.2 °C -8.7 °C 1034.4 hPa North 9.8 km/h 14.8 km/h 61 % 0 mm
08:46 -1.9 °C -8.2 °C 1034.1 hPa NW 3.9 km/h 11.1 km/h 62 % 0 mm
08:51 -1.6 °C -8.2 °C 1034.4 hPa NNE 6.6 km/h 9.7 km/h 61 % 0 mm
08:56 -1.3 °C -8.1 °C 1034.1 hPa North 3.2 km/h 9.3 km/h 60 % 0 mm
09:01 -0.9 °C -7.9 °C 1034.1 hPa NW 2.6 km/h 14.8 km/h 59 % 0 mm
09:06 -0.7 °C -7.9 °C 1034.1 hPa North 4.7 km/h 9.3 km/h 58 % 0 mm
09:11 -0.4 °C -7.5 °C 1034.1 hPa North 5 km/h 11.3 km/h 59 % 0 mm
09:16 -0.2 °C -7.7 °C 1034.1 hPa North 9.5 km/h 14.8 km/h 57 % 0 mm
09:21 0 °C -7.3 °C 1034.1 hPa WNW 6.1 km/h 11.1 km/h 58 % 0 mm
09:26 0.3 °C -7.4 °C 1034.1 hPa North 9.2 km/h 14.8 km/h 56 % 0 mm
09:31 0.6 °C -7.7 °C 1034.1 hPa NNE 4.2 km/h 6.4 km/h 54 % 0 mm
09:41 1.2 °C -7.4 °C 1034.1 hPa North 6.1 km/h 13 km/h 53 % 0 mm
09:46 1.3 °C -7.3 °C 1034.1 hPa North 3.7 km/h 11.3 km/h 53 % 0 mm
09:51 1.6 °C -6.9 °C 1034.1 hPa NNW 3.2 km/h 11.1 km/h 53 % 0 mm
09:56 1.9 °C -7.4 °C 1034.1 hPa NW 8.5 km/h 12.9 km/h 50 % 0 mm
10:01 2.1 °C -7.6 °C 1034.1 hPa NE 8.5 km/h 18.5 km/h 49 % 0 mm
10:06 2.2 °C -7.7 °C 1034.1 hPa NNW 5.1 km/h 9.3 km/h 48 % 0 mm
10:11 2.3 °C -7.3 °C 1034.1 hPa North 5.8 km/h 9.3 km/h 49 % 0 mm
10:16 2.4 °C -7.8 °C 1034.1 hPa West 5 km/h 7.4 km/h 47 % 0 mm
10:21 2.5 °C -6.9 °C 1034.1 hPa NNE 5 km/h 7.4 km/h 50 % 0 mm
10:27 2.6 °C -7.4 °C 1034.1 hPa NE 5.1 km/h 9.3 km/h 48 % 0 mm
10:32 2.6 °C -7.3 °C 1034.1 hPa North 5 km/h 11.1 km/h 48 % 0 mm
10:37 2.6 °C -7.1 °C 1034.1 hPa NNW 5.5 km/h 9.3 km/h 49 % 0 mm
10:42 2.7 °C -6.7 °C 1034.1 hPa NNW 4.3 km/h 16.7 km/h 50 % 0 mm
10:47 2.7 °C -6.9 °C 1034.1 hPa ENE 4.7 km/h 8 km/h 49 % 0 mm
10:52 2.6 °C -7.7 °C 1034.1 hPa NNW 9.7 km/h 14.8 km/h 47 % 0 mm
10:53 2.6 °C -7.9 °C 1034.1 hPa North 10 km/h 14.8 km/h 46 % 0 mm
10:58 2.4 °C -7.8 °C 1034.1 hPa North 6.6 km/h 9.7 km/h 47 % 0 mm
11:03 2.3 °C -7.3 °C 1034.1 hPa NW 4.5 km/h 8 km/h 49 % 0 mm
11:08 2.1 °C -7.8 °C 1034.1 hPa NW 4.7 km/h 9.3 km/h 48 % 0 mm
11:13 2 °C -7.9 °C 1034.1 hPa NNE 9.8 km/h 14.8 km/h 48 % 0 mm
11:18 1.8 °C -7.8 °C 1034.1 hPa NNE 6.8 km/h 16.7 km/h 49 % 0 mm
11:23 1.6 °C -7.7 °C 1034.1 hPa North 8.9 km/h 13 km/h 50 % 0 mm
11:28 1.4 °C -7.9 °C 1033.7 hPa NNE 2.6 km/h 8 km/h 50 % 0 mm
11:33 1.3 °C -8 °C 1033.7 hPa North 5.6 km/h 11.1 km/h 50 % 0 mm
11:38 1.2 °C -8.1 °C 1033.4 hPa NNE 6.9 km/h 9.7 km/h 50 % 0 mm
11:43 1.2 °C -7.9 °C 1033.7 hPa North 9 km/h 16.7 km/h 51 % 0 mm
11:48 1.2 °C -7.9 °C 1033.7 hPa NNW 4 km/h 7.4 km/h 51 % 0 mm
11:53 1.2 °C -7.9 °C 1033.7 hPa NW 1.3 km/h 7.4 km/h 51 % 0 mm
11:58 1.3 °C -7.8 °C 1033.4 hPa NNE 4.3 km/h 9.3 km/h 51 % 0 mm
12:04 1.3 °C -8.3 °C 1033.4 hPa NNW 6.9 km/h 13 km/h 49 % 0 mm
12:08 1.3 °C -7.8 °C 1033.4 hPa WNW 3.2 km/h 9.7 km/h 51 % 0 mm
12:14 1.3 °C -7.5 °C 1033.1 hPa NNW 4.5 km/h 9.3 km/h 52 % 0 mm
12:19 1.3 °C -8.3 °C 1033.4 hPa NW 3.2 km/h 7.4 km/h 49 % 0 mm
12:24 1.3 °C -7.9 °C 1033.4 hPa NNE 6.4 km/h 13 km/h 50 % 0 mm
12:29 1.3 °C -7.9 °C 1033.4 hPa North 3.2 km/h 6.4 km/h 50 % 0 mm
12:34 1.4 °C -7.9 °C 1033.1 hPa North 6.8 km/h 9.3 km/h 50 % 0 mm
12:39 1.5 °C -7.8 °C 1033.1 hPa NNE 2.9 km/h 6.4 km/h 50 % 0 mm
12:44 1.6 °C -7.8 °C 1033.4 hPa NNW 4 km/h 7.4 km/h 50 % 0 mm
12:49 1.7 °C -7.4 °C 1033.1 hPa North 3.9 km/h 11.1 km/h 51 % 0 mm
12:54 1.9 °C -7.2 °C 1032.7 hPa North 1.3 km/h 7.4 km/h 51 % 0 mm
12:59 2.1 °C -7.1 °C 1032.7 hPa NNW 1 km/h 5.6 km/h 51 % 0 mm
13:05 2.4 °C -6.7 °C 1032.7 hPa North 8.9 km/h 14.5 km/h 51 % 0 mm
13:10 2.8 °C -7.2 °C 1032.7 hPa North 10.1 km/h 17.7 km/h 48 % 0 mm
13:15 3 °C -7.2 °C 1032.4 hPa NNW 6 km/h 9.3 km/h 47 % 0 mm
13:20 3.3 °C -7.3 °C 1032.4 hPa NNW 2.1 km/h 7.4 km/h 46 % 0 mm
13:25 3.5 °C -7.1 °C 1032.4 hPa North 4.5 km/h 7.4 km/h 46 % 0 mm
13:30 3.7 °C -7.5 °C 1032.4 hPa NW 4 km/h 4 km/h 44 % 0 mm
13:35 3.9 °C -7 °C 1032.1 hPa NW 2.3 km/h 7.4 km/h 45 % 0 mm
13:40 4.1 °C -6.6 °C 1032.4 hPa NNE 2.4 km/h 9.3 km/h 46 % 0 mm
13:45 4.1 °C -7.1 °C 1032.1 hPa NW 2.3 km/h 5.6 km/h 44 % 0 mm
13:50 4.1 °C -7.4 °C 1032.1 hPa North 6.9 km/h 11.1 km/h 43 % 0 mm
13:55 4.2 °C -7 °C 1032.1 hPa North 1.4 km/h 3.7 km/h 44 % 0 mm
14:00 4.1 °C -7.1 °C 1032.1 hPa North 5.6 km/h 13 km/h 44 % 0 mm
14:05 4 °C -7.5 °C 1032.1 hPa ENE 2.3 km/h 5.6 km/h 43 % 0 mm
14:10 3.8 °C -7.3 °C 1032.1 hPa NNE 3.9 km/h 7.4 km/h 44 % 0 mm
14:15 3.7 °C -7.4 °C 1031.7 hPa North 9.3 km/h 14.8 km/h 44 % 0 mm
14:20 3.6 °C -7.6 °C 1032.1 hPa ENE 2.3 km/h 7.4 km/h 44 % 0 mm
14:25 3.4 °C -7.2 °C 1032.1 hPa North 6 km/h 14.8 km/h 46 % 0 mm
14:30 3.3 °C -7.8 °C 1031.7 hPa North 5.6 km/h 9.3 km/h 44 % 0 mm
14:35 3.2 °C -7.9 °C 1032.1 hPa NNE 3.1 km/h 7.4 km/h 44 % 0 mm
14:40 3.1 °C -8 °C 1031.7 hPa NE 2.6 km/h 5.6 km/h 44 % 0 mm
14:45 3.1 °C -7.7 °C 1032.1 hPa North 2.1 km/h 5.6 km/h 45 % 0 mm
14:50 3 °C -7.5 °C 1032.1 hPa NE 1.8 km/h 5.6 km/h 46 % 0 mm
14:55 2.9 °C -8.1 °C 1031.7 hPa NNE 2.6 km/h 3.7 km/h 44 % 0 mm
15:00 2.9 °C -8.4 °C 1032.1 hPa ENE 4.2 km/h 5.6 km/h 43 % 0 mm
15:05 2.9 °C -8.5 °C 1032.1 hPa ENE 1.1 km/h 1.9 km/h 43 % 0 mm
15:10 2.8 °C -8.8 °C 1032.1 hPa NE 2.7 km/h 5.6 km/h 42 % 0 mm
15:15 2.8 °C -8.6 °C 1032.1 hPa NE 1.9 km/h 1.9 km/h 43 % 0 mm
15:20 2.8 °C -7.9 °C 1032.1 hPa ENE 3.5 km/h 5.6 km/h 45 % 0 mm
15:22 2.8 °C -7.9 °C 1031.7 hPa ENE 1.8 km/h 5.6 km/h 45 % 0 mm
15:27 2.8 °C -7.9 °C 1032.1 hPa North 0.6 km/h 7.4 km/h 45 % 0 mm
15:32 2.8 °C -7.7 °C 1032.1 hPa North 0.5 km/h 1.9 km/h 46 % 0 mm
15:37 2.8 °C -7.7 °C 1032.1 hPa North 0.6 km/h 3.2 km/h 46 % 0 mm
15:42 2.7 °C -7.5 °C 1031.7 hPa NNE 2.3 km/h 5.6 km/h 47 % 0 mm
15:47 2.7 °C -7.6 °C 1032.1 hPa NNE 3.5 km/h 5.6 km/h 47 % 0 mm
15:52 2.6 °C -7.6 °C 1032.1 hPa Calm     47 % 0 mm
15:54 2.6 °C -7.6 °C 1032.1 hPa NNE 0.6 km/h 3.7 km/h 47 % 0 mm
15:59 2.6 °C -7.4 °C 1032.1 hPa NNE 2.6 km/h 5.6 km/h 48 % 0 mm
16:04 2.4 °C -7.2 °C 1032.4 hPa Calm     49 % 0 mm
16:09 2.4 °C -7.5 °C 1032.1 hPa NNE 1.9 km/h 3.7 km/h 48 % 0 mm
16:14 2.3 °C -7.3 °C 1032.4 hPa NNE 1.3 km/h 4.8 km/h 49 % 0 mm
16:20 2.3 °C -7.1 °C 1032.1 hPa Calm   1.9 km/h 50 % 0 mm
16:25 2.2 °C -7.4 °C 1032.1 hPa Calm   1.9 km/h 49 % 0 mm
16:30 2.2 °C -7.4 °C 1032.4 hPa North 2.3 km/h 5.6 km/h 49 % 0 mm
16:35 2.1 °C -7.6 °C 1032.1 hPa North 1.1 km/h 6.4 km/h 49 % 0 mm
16:40 2.1 °C -7.6 °C 1032.4 hPa NNW 0.8 km/h 4.8 km/h 49 % 0 mm
16:45 2 °C -7.3 °C 1032.4 hPa NW 1.3 km/h 6.4 km/h 50 % 0 mm
16:50 1.9 °C -7.4 °C 1032.4 hPa North 0.6 km/h 3.7 km/h 50 % 0 mm
16:55 1.9 °C -7.4 °C 1032.4 hPa NNE 1.9 km/h 6.4 km/h 50 % 0 mm
17:00 1.9 °C -7.2 °C 1032.7 hPa NNE 0.2 km/h   51 % 0 mm
17:05 1.8 °C -7 °C 1032.4 hPa NW 0.6 km/h 1.9 km/h 52 % 0 mm
17:10 1.8 °C -7.2 °C 1032.7 hPa Calm   1.9 km/h 51 % 0 mm
17:16 1.8 °C -7.1 °C 1032.7 hPa Calm     52 % 0 mm
17:19 1.8 °C -7.1 °C 1032.4 hPa Calm     52 % 0 mm
17:24 1.7 °C -6.8 °C 1032.4 hPa Calm     53 % 0 mm
17:26 1.7 °C -6.6 °C 1032.4 hPa Calm     54 % 0 mm
17:31 1.7 °C -6.2 °C 1032.7 hPa Calm     56 % 0 mm
17:36 1.6 °C -6.2 °C 1032.7 hPa Calm     56 % 0 mm
17:41 1.6 °C -6.3 °C 1032.7 hPa Calm     56 % 0 mm
17:46 1.5 °C -5.7 °C 1032.7 hPa Calm   1.6 km/h 59 % 0 mm
17:51 1.4 °C -5.8 °C 1032.7 hPa Calm   1.6 km/h 59 % 0 mm
17:56 1.3 °C -5.8 °C 1032.7 hPa Calm   1.6 km/h 59 % 0 mm
18:01 1.2 °C -5.7 °C 1033.1 hPa NNW 1.1 km/h 3.7 km/h 60 % 0 mm
18:06 1.1 °C -5.6 °C 1032.7 hPa Calm   3.2 km/h 61 % 0 mm
18:11 0.9 °C -5.7 °C 1032.7 hPa Calm     61 % 0 mm
18:16 0.8 °C -6.1 °C 1033.1 hPa NNW 0.3 km/h 1.9 km/h 60 % 0 mm
18:21 0.8 °C -5.9 °C 1033.1 hPa Calm     61 % 0 mm
18:26 0.7 °C -6 °C 1033.1 hPa Calm   1.9 km/h 61 % 0 mm
18:31 0.6 °C -5.9 °C 1033.1 hPa NNW 1.8 km/h 3.7 km/h 62 % 0 mm
18:36 0.4 °C -5.8 °C 1033.1 hPa Calm     63 % 0 mm
18:41 0.4 °C -5.8 °C 1033.1 hPa Calm     63 % 0 mm
18:46 0.3 °C -5.9 °C 1033.1 hPa Calm     63 % 0 mm
18:51 0.2 °C -5.6 °C 1033.1 hPa NW 0.8 km/h 3.7 km/h 65 % 0 mm
18:56 0.1 °C -5.7 °C 1033.4 hPa NW 0.8 km/h 1.9 km/h 65 % 0 mm
19:01 0.1 °C -5.7 °C 1033.4 hPa Calm     65 % 0 mm
19:06 -0.1 °C -5.8 °C 1033.4 hPa Calm     65 % 0 mm
19:11 -0.1 °C -5.7 °C 1033.1 hPa Calm   1.9 km/h 66 % 0 mm
19:16 -0.2 °C -5.8 °C 1033.1 hPa Calm     66 % 0 mm
19:21 -0.2 °C -5.8 °C 1033.1 hPa Calm     66 % 0 mm
19:26 -0.3 °C -5.9 °C 1033.1 hPa Calm     66 % 0 mm
19:31 -0.3 °C -5.9 °C 1033.1 hPa NW 0.2 km/h 1.9 km/h 66 % 0 mm
19:36 -0.4 °C -5.8 °C 1033.1 hPa Calm   1.9 km/h 67 % 0 mm
19:41 -0.4 °C -5.8 °C 1033.1 hPa NW 0.2 km/h 1.9 km/h 67 % 0 mm
19:46 -0.4 °C -5.8 °C 1033.1 hPa Calm   1.9 km/h 67 % 0 mm
19:51 -0.5 °C -5.9 °C 1033.1 hPa Calm     67 % 0 mm
19:56 -0.6 °C -5.7 °C 1033.4 hPa NW 0.6 km/h 3.7 km/h 68 % 0 mm
20:01 -0.6 °C -5.8 °C 1033.4 hPa NW 0.3 km/h 3.7 km/h 68 % 0 mm
20:06 -0.6 °C -5.6 °C 1033.4 hPa Calm   1.9 km/h 69 % 0 mm
20:11 -0.7 °C -5.7 °C 1033.4 hPa Calm     69 % 0 mm
20:16 -0.7 °C -5.7 °C 1033.1 hPa Calm     69 % 0 mm
20:21 -0.7 °C -5.4 °C 1033.4 hPa Calm     70 % 0 mm
20:26 -0.7 °C -5.4 °C 1033.4 hPa NNW 3.5 km/h 5.6 km/h 70 % 0 mm
20:31 -0.7 °C -5.3 °C 1033.1 hPa Calm   1.9 km/h 71 % 0 mm
20:37 -0.7 °C -5.3 °C 1033.1 hPa Calm   1.9 km/h 71 % 0 mm
20:41 -0.7 °C -5.1 °C 1033.1 hPa NW 2.4 km/h 3.2 km/h 72 % 0 mm
20:46 -0.7 °C -5.1 °C 1033.1 hPa WNW 0.2 km/h 1.9 km/h 72 % 0 mm
20:52 -0.7 °C -5.1 °C 1033.1 hPa WNW 2.7 km/h 3.7 km/h 72 % 0 mm
20:57 -0.7 °C -5.1 °C 1033.1 hPa WNW 0.3 km/h 5.6 km/h 72 % 0 mm
21:02 -0.7 °C -5.1 °C 1032.7 hPa WNW 0.6 km/h 3.7 km/h 72 % 0 mm
21:07 -0.7 °C -5.1 °C 1032.7 hPa WNW 1.3 km/h 3.7 km/h 72 % 0 mm
21:12 -0.7 °C -5.1 °C 1032.4 hPa WNW 0.6 km/h 1.9 km/h 72 % 0 mm
21:17 -0.7 °C -4.9 °C 1032.7 hPa Calm   1.9 km/h 73 % 0 mm
21:22 -0.7 °C -4.9 °C 1032.7 hPa Calm     73 % 0 mm
21:27 -0.7 °C -4.9 °C 1032.7 hPa WNW 0.8 km/h 1.6 km/h 73 % 0 mm
21:32 -0.8 °C -5 °C 1032.7 hPa Calm     73 % 0 mm
21:37 -0.8 °C -5 °C 1032.4 hPa Calm     73 % 0 mm
21:42 -0.8 °C -5.1 °C 1032.4 hPa Calm     73 % 0 mm
21:47 -0.9 °C -4.9 °C 1032.4 hPa Calm     74 % 0 mm
21:52 -0.9 °C -5 °C 1032.4 hPa Calm   1.9 km/h 74 % 0 mm
21:57 -1 °C -5.1 °C 1032.4 hPa Calm     74 % 0 mm
22:02 -1.1 °C -5.1 °C 1032.4 hPa Calm     74 % 0 mm
22:07 -1.1 °C -5.2 °C 1032.4 hPa WNW 0.6 km/h 1.9 km/h 74 % 0 mm
22:12 -1.2 °C -5.2 °C 1032.4 hPa Calm     74 % 0 mm
22:17 -1.2 °C -5.3 °C 1032.4 hPa WNW 1.4 km/h 3.7 km/h 74 % 0 mm
22:22 -1.2 °C -5.1 °C 1024.6 hPa WNW 0.5 km/h   75 % 0 mm
22:23 -1.3 °C -5.2 °C 1024.6 hPa WNW 1 km/h 1.6 km/h 75 % 0 mm
22:25 -1.3 °C -5.2 °C 1032.1 hPa WNW 0.5 km/h 1.9 km/h 75 % 0 mm
22:29 -1.3 °C -5.2 °C 1024.6 hPa Calm   1.9 km/h 75 % 0 mm
22:30 -1.3 °C -5.2 °C 1032.1 hPa Calm     75 % 0 mm
22:35 -1.3 °C -5 °C 1032.4 hPa Calm     76 % 0 mm
22:40 -1.4 °C -5.1 °C 1032.4 hPa Calm     76 % 0 mm
22:45 -1.4 °C -5.1 °C 1032.1 hPa WNW 0.5 km/h 1.9 km/h 76 % 0 mm
22:50 -1.4 °C -5.1 °C 1032.1 hPa Calm     76 % 0 mm
22:53 -1.4 °C -4.9 °C 1032.1 hPa Calm     77 % 0 mm
22:58 -1.5 °C -5 °C 1032.1 hPa Calm     77 % 0 mm
23:03 -1.5 °C -5 °C 1032.1 hPa Calm     77 % 0 mm
23:08 -1.5 °C -4.8 °C 1032.1 hPa WNW 1.8 km/h 3.7 km/h 78 % 0 mm
23:13 -1.5 °C -4.8 °C 1032.1 hPa Calm   1.6 km/h 78 % 0 mm
23:18 -1.6 °C -4.9 °C 1032.1 hPa Calm   1.6 km/h 78 % 0 mm
23:23 -1.6 °C -4.7 °C 1032.1 hPa Calm     79 % 0 mm
23:28 -1.6 °C -4.7 °C 1032.4 hPa WNW 1.3 km/h 3.7 km/h 79 % 0 mm
23:34 -1.6 °C -4.6 °C 1032.4 hPa WNW 1.8 km/h 3.7 km/h 80 % 0 mm
23:39 -1.5 °C -4.3 °C 1032.4 hPa West 2.4 km/h 5.6 km/h 81 % 0 mm
23:44 -1.5 °C -4.3 °C 1032.7 hPa West 1.6 km/h 3.7 km/h 81 % 0 mm
23:49 -1.4 °C -4.1 °C 1032.7 hPa West 2.3 km/h 5.6 km/h 82 % 0 mm
23:54 -1.3 °C -4 °C 1032.7 hPa West 1 km/h 5.6 km/h 82 % 0 mm
23:59 -1.3 °C -3.9 °C 1032.4 hPa West 0.2 km/h 5.6 km/h 82 % 0 mm
Crab Meadow Weather
Compliments of Weather Underground - 3 mb

Script developed by  Jim McMurry - jmcmurry@mwt.net Adapted for the template by  Wim van der Kuil - Leuven-Template.eu

Weather Terms: Downburst - A strong downdraft from a thunderstorm resulting in an outward burst of damaging winds on or near the ground. Downburst winds are often 50 to 100 mph and in a few cases, 100 to 150 mph. They can do as much damage as a small tornado.